Regional Weather Roundup
Issued by NWS

Home | Current Version | Previous Version | Graphics & Text | Print | Product List | Glossary On
Versions: 1 2 3 4 5 6 7 8 9 10 11 12 13 14 15 16 17 18 19 20 21 22 23 24 25 26 27 28 29 30 31 32 33 34 35 36 37 38 39 40 41 42 43 44 45 46 47 48 49 50
000
ASUS43 KLOT 300100
RWRIL

ILLINOIS REGIONAL WEATHER ROUNDUP
NATIONAL WEATHER SERVICE CHICAGO/ROMEOVILLE IL
800 PM CDT TUE JUL 29 2014

NOTE: "FAIR" INDICATES FEW OR NO CLOUDS BELOW 12,000 FEET WITH NO
SIGNIFICANT WEATHER AND/OR OBSTRUCTIONS TO VISIBILITY.

* THESE STATIONS ARE NOT UNDER NWS QUALITY CONTROL. THEY ALSO MAY NOT
  REPORT WEATHER SUCH AS PRECIPITATION OR FOG.

ILZ001-002-007-009-015-016-024-300200-
NORTHWEST ILLINOIS

CITY           SKY/WX    TMP DP  RH WIND       PRES   REMARKS
MOLINE         CLEAR     74  57  55 W6        30.03S
STERLING*      CLEAR     72  59  64 NW6       30.03S
SAVANNA*       CLEAR     76  56  51 W7        30.02S
$$

ILZ003-004-008-010-011-017-018-300200-
NORTH CENTRAL ILLINOIS

CITY           SKY/WX    TMP DP  RH WIND       PRES   REMARKS
ROCKFORD       MOCLDY    72  52  49 NW8       30.03R
FREEPORT*      PTCLDY    68  61  78 NW3       30.05R
$$

ILZ005-006-012>014-019>023-300200-
NORTHEAST ILLINOIS

CITY           SKY/WX    TMP DP  RH WIND       PRES   REMARKS
CHICAGO-OHARE  MOCLDY    73  56  54 W9        29.99R
CHICAGO-MIDWAY PTCLDY    74  58  57 W14       29.99S
AURORA         MOCLDY    68  62  81 SW3       30.02S
LANSING*       PTCLDY    68  56  64 W8        30.01S
WAUKEGAN       CLEAR     67  60  78 CALM      29.98S
DUPAGE AIRPORT PTCLDY    69  57  65 W6        30.00S
WHEELING       CLEAR     76  53  44 NW10      30.00R
NORTHERLY ISL    N/A     70  57  63 NE10        N/A
$$

LMZ740>746-300200-
SOUTHERN LAKE MICHIGAN

STATION/POSITION SKY/WX   TEMP    WIND        PRES    VSBY  WAVE
                          AIR SEA DIR/SP/G                  HT/PER
                          (F)     (DEG/KT/KT) (MB)    (MI)  (FT/S)
SOUTHERN BUOY              63 62  200/  6/  8 1015.3F         0
WAUKEGAN HARBOR            65     190/  6/  7   N/A
HARRISON CRIB              69     160/  9/ 10   N/A
BURNHAM HARBOR             69      90/  4/  6   N/A
CALUMET HARBOR             72     200/  6/  9 1014.3F
MICHIGAN CITY              69      30/  5/  5   N/A
MICHIGAN CITY 6N           68 69  230/  4/  6   N/A           1
ST. JOSEPH                 68 68  180/  4/  6   N/A           1
$$

ILZ025>027-034>036-040-047-049-050-058-095>099-300200-
WEST-CENTRAL ILLINOIS

CITY           SKY/WX    TMP DP  RH WIND       PRES   REMARKS
QUINCY         CLEAR     73  56  54 CALM      30.07F
GALESBURG*     CLEAR     72  62  69 W3        30.06S
MACOMB*        CLEAR     69  63  82 W5        30.08S
$$

ILZ028>032-037-038-041>044-048-051>054-059>061-300200-
CENTRAL ILLINOIS

CITY           SKY/WX    TMP DP  RH WIND       PRES   REMARKS
PONTIAC        PTCLDY    68  63  83 CALM      30.03F
DECATUR        CLEAR     73  56  54 W5        30.06S
PEORIA         CLEAR     74  57  55 W5        30.05S
SPRINGFIELD    CLEAR     71  62  73 W5        30.06F
TAYLORVILLE    NOT AVBL
$$

ILZ033-039-045-046-055>057-062-063-300200-
EAST-CENTRAL ILLINOIS

CITY           SKY/WX    TMP DP  RH WIND       PRES   REMARKS
CHAMPAIGN      CLEAR     67  61  81 W7        30.05S
MATTOON        CLEAR     69  56  62 W5        30.05S
$$

ILZ079-100>102-300200-
SOUTHWEST ILLINOIS

CITY           SKY/WX    TMP DP  RH WIND       PRES   REMARKS
BELLEVILLE     CLEAR     74  58  57 NW2       30.06S
CAHOKIA*       CLEAR     75  55  49 NW6       30.06F
SPARTA*        CLEAR     72  55  56 CALM      30.08S
$$

ILZ064>066-069>071-074>076-080>082-084>086-088>090-092>094-300200-
SOUTH-CENTRAL ILLINOIS

CITY           SKY/WX    TMP DP  RH WIND       PRES   REMARKS
CARBONDALE     CLEAR     72  57  59 W5        30.07F
MT. VERNON     CLEAR     72  55  56 CALM      30.07F
SALEM*         CLEAR    N/A N/A N/A CALM      30.07F
$$

ILZ067-068-072-073-078-083-087-091-300200-
SOUTHEAST ILLINOIS

CITY           SKY/WX    TMP DP  RH WIND       PRES   REMARKS
LAWRENCEVILLE  CLEAR     71  59  65 NW3       30.05
HARRISBURG*    CLEAR     71  58  63 CALM      30.08S
ROBINSON*      CLEAR     71  59  66 CALM      30.06S
$$

ABBREVIATIONS USED IN REMARKS
   TC - TEMPERATURE IN CELSIUS
  WCI - WIND CHILL INDEX
   HX - HEAT INDEX
  VSB - VISIBILITY
$$



USA.gov is the U.S. government's official web portal to all federal, state and local government web resources and services.